Terug naar catalogus

QIANFAN-103

ActiefCommunicatiePO
NORAD 66045·PAYLOAD·🇨🇳 China

Gelanceerd Oct 17, 2025 vanaf Taiyuan Satellite Launch Center

Loading…

Volgende Passages (komende 24 uur)

TLE

VersSource: Space-Track

Epoch: Sep 14, 2026, 15:35 UTC

1 66045U 25233N   26257.64990213  .00000066  00000-0  83354-4 0  9991
2 66045  89.0053  34.1552 0001887  92.5025 267.6342 13.51020835 45260

Volg QIANFAN-103 in realtime met AllMySat

Download on the App Store